Date String (YYYY-MM-DD hh:mm:ss) UTC,Instrument flags,Ambient pressure (hPa),Sample flow (lpm),Bypass flow (lpm),Sample temperature (°C),Ambient temperature (°C),ASC tube jacket temperature (°C),LED temperature (°C),Box temperature (°C),Sample RH (%),Span deviation,Mass concentration (μg/m³),Mass concentration (μg/m³),Mass concentration (μg/m³)
DateTimeUTC,F1_M11,P_M11,Q1_M11,Q2_M11,T1_M11,T2_M11,T3_M11,T4_M11,T5_M11,U1_M11,ZSPAN_M11,X0_M11,X2_M11,X1_M11
2022-11-13 14:00:00,,0819.9,4.99,0.00,21.8,20.2,00.0,30.8,23.5,08.0,0000.0,0005.61,0001.95,0001.74
2022-11-13 14:01:00,,0819.9,5.00,0.00,21.8,20.9,00.0,30.8,23.7,08.0,0000.0,0005.46,0001.86,0001.67
2022-11-13 14:02:00,,0819.9,5.01,0.00,22.0,22.1,00.0,30.7,24.0,08.0,0000.0,0004.93,0001.84,0001.64
2022-11-13 14:03:00,,0819.9,4.98,0.00,22.1,22.3,00.0,30.8,24.1,08.0,0000.0,0004.05,0001.80,0001.58
2022-11-13 14:04:00,,0819.9,5.00,0.00,22.1,21.8,00.0,30.8,24.0,08.0,0000.0,0004.02,0001.75,0001.51
2022-11-13 14:05:00,,0819.9,4.99,0.00,22.1,21.2,00.0,30.8,23.9,08.0,0000.0,0003.24,0001.71,0001.47
2022-11-13 14:06:00,,0819.9,5.00,0.00,22.0,20.9,00.0,30.8,23.8,08.0,0000.0,0003.21,0001.70,0001.44
2022-11-13 14:07:00,,0819.9,5.00,0.00,22.0,20.6,00.0,30.8,23.7,08.2,0000.0,0003.19,0001.62,0001.35
2022-11-13 14:08:00,,0819.9,5.02,0.00,21.9,20.4,00.0,30.8,23.7,08.2,0000.0,0003.07,0001.47,0001.18
2022-11-13 14:09:00,,0820.0,4.99,0.00,21.9,20.2,00.0,30.8,23.6,08.2,0000.0,0002.83,0001.41,0001.08
2022-11-13 14:10:00,,0819.9,4.99,0.00,21.8,20.0,00.0,30.8,23.5,08.1,0000.0,0002.43,0001.33,0000.98
2022-11-13 14:11:00,,0819.9,5.01,0.00,21.8,19.9,00.0,30.8,23.5,08.2,0000.0,0002.32,0001.26,0000.93
2022-11-13 14:12:00,,0820.0,5.01,0.00,21.8,19.9,00.0,30.8,23.5,08.2,0000.0,0002.42,0001.26,0000.91
2022-11-13 14:13:00,,0819.9,4.98,0.00,21.7,20.0,00.0,30.8,23.5,08.7,0000.0,0003.51,0001.60,0001.16
2022-11-13 14:14:00,,0820.0,5.02,0.00,21.7,20.1,00.0,30.7,23.5,08.8,0000.0,0005.67,0002.50,0001.87
2022-11-13 14:15:00,,0820.0,4.99,0.00,21.8,20.2,00.0,30.7,23.5,08.8,0000.0,0008.31,0003.29,0002.62
2022-11-13 14:16:00,,0820.0,4.99,0.00,21.8,20.2,00.0,30.7,23.6,08.7,0000.0,0009.55,0003.78,0003.21
2022-11-13 14:17:00,,0820.1,5.01,0.00,21.8,21.0,00.0,30.7,23.7,08.7,-000.8,0010.90,0004.21,0003.57
2022-11-13 14:18:00,,0820.1,4.99,0.00,21.9,22.4,00.0,30.7,24.0,08.8,-001.0,0012.39,0004.69,0003.99
2022-11-13 14:19:00,,0820.2,5.00,0.00,22.1,22.7,00.0,30.8,24.2,08.8,-000.5,0013.65,0005.23,0004.41
2022-11-13 14:20:00,,0820.2,5.00,0.00,22.1,22.4,00.0,30.8,24.2,08.7,-000.8,0014.89,0005.69,0004.82
2022-11-13 14:21:00,,0820.2,5.00,0.00,22.2,22.0,00.0,30.8,24.2,08.7,-000.7,0016.69,0006.18,0005.22
2022-11-13 14:22:00,,0820.2,5.00,0.00,22.2,21.8,00.0,30.9,24.1,08.7,-000.9,0018.04,0006.70,0005.60
2022-11-13 14:23:00,,0820.2,5.01,0.00,22.2,21.6,00.0,30.9,24.1,08.7,-001.5,0019.80,0007.20,0005.99
2022-11-13 14:24:00,,0820.2,5.00,0.00,22.2,21.5,00.0,30.9,24.1,08.6,-001.8,0020.72,0007.54,0006.24
2022-11-13 14:25:00,,0820.2,5.00,0.00,22.3,21.4,00.0,30.9,24.1,08.3,-001.3,0020.19,0007.48,0006.21
2022-11-13 14:26:00,,0820.2,5.00,0.00,22.3,21.4,00.0,31.0,24.1,08.3,-001.0,0019.54,0007.43,0006.14
2022-11-13 14:27:00,,0820.1,4.99,0.00,22.3,21.4,00.0,31.0,24.1,08.3,-001.4,0019.16,0007.36,0006.06
2022-11-13 14:28:00,,0820.1,4.99,0.00,22.3,21.4,00.0,31.0,24.1,08.4,-000.8,0018.69,0007.40,0006.07
2022-11-13 14:29:00,,0820.1,5.01,0.00,22.3,21.3,00.0,31.1,24.1,08.3,0000.1,0018.74,0007.31,0005.98
2022-11-13 14:30:00,,0820.0,5.01,0.00,22.3,21.3,00.0,31.1,24.2,08.3,-000.3,0019.11,0007.14,0005.86
2022-11-13 14:31:00,,0820.1,5.00,0.00,22.3,21.3,00.0,31.1,24.2,08.2,-000.2,0018.44,0006.94,0005.71
2022-11-13 14:32:00,,0820.1,4.99,0.00,22.3,21.3,00.0,31.1,24.2,08.5,-000.3,0017.26,0006.79,0005.60
2022-11-13 14:33:00,,0820.1,5.01,0.00,22.4,21.3,00.0,31.1,24.2,08.7,-000.2,0016.91,0006.80,0005.61
2022-11-13 14:34:00,,0820.1,5.01,0.00,22.4,21.2,00.0,31.1,24.2,08.7,0000.2,0016.26,0006.88,0005.67
2022-11-13 14:35:00,,0820.1,4.98,0.00,22.4,21.2,00.0,31.2,24.2,08.7,0000.8,0017.08,0006.87,0005.68
2022-11-13 14:36:00,,0820.1,5.01,0.00,22.4,21.2,00.0,31.2,24.2,08.7,0000.0,0017.96,0006.92,0005.74
2022-11-13 14:37:00,,0820.1,5.00,0.00,22.4,21.2,00.0,31.2,24.2,08.8,0000.3,0018.06,0006.96,0005.81
2022-11-13 14:38:00,,0820.1,4.99,0.00,22.4,21.2,00.0,31.2,24.2,08.8,0000.2,0019.10,0007.04,0005.91
2022-11-13 14:39:00,,0820.1,5.01,0.00,22.4,21.2,00.0,31.2,24.2,08.7,0000.7,0020.04,0007.03,0005.95
2022-11-13 14:40:00,,0820.2,5.01,0.00,22.4,21.2,00.0,31.2,24.2,08.8,0000.5,0019.39,0007.10,0006.03
2022-11-13 14:41:00,,0820.2,5.00,0.00,22.4,21.2,00.0,31.2,24.2,08.8,0000.1,0019.06,0007.27,0006.15
2022-11-13 14:42:00,,0820.2,5.00,0.00,22.4,21.2,00.0,31.2,24.2,08.7,0000.4,0019.13,0007.49,0006.34
2022-11-13 14:43:00,,0820.2,4.99,0.00,22.4,21.2,00.0,31.2,24.2,08.5,0000.7,0019.52,0007.66,0006.50
2022-11-13 14:44:00,,0820.2,4.99,0.00,22.4,21.2,00.0,31.2,24.2,08.5,0000.7,0019.37,0007.67,0006.58
2022-11-13 14:45:00,,0820.2,5.02,0.00,22.4,21.2,00.0,31.2,24.2,08.6,0001.5,0019.01,0007.62,0006.61
2022-11-13 14:46:00,,0820.2,5.01,0.00,22.4,21.2,00.0,31.3,24.2,08.7,0001.8,0018.16,0007.59,0006.65
2022-11-13 14:47:00,,0820.2,4.98,0.00,22.4,21.2,00.0,31.3,24.2,08.6,0001.4,0018.35,0007.63,0006.74
2022-11-13 14:48:00,,0820.2,5.01,0.00,22.4,21.2,00.0,31.3,24.2,08.6,0001.5,0017.82,0007.69,0006.84
2022-11-13 14:49:00,,0820.2,5.00,0.00,22.4,21.2,00.0,31.3,24.2,08.7,0002.6,0016.75,0007.78,0006.97
2022-11-13 14:50:00,,0820.2,4.98,0.00,22.4,21.2,00.0,31.3,24.2,08.6,0002.9,0015.73,0007.93,0007.12
2022-11-13 14:51:00,,0820.2,5.01,0.00,22.4,21.2,00.0,31.3,24.2,08.7,0001.0,0015.95,0008.07,0007.24
2022-11-13 14:52:00,,0820.2,5.00,0.00,22.4,21.1,00.0,31.3,24.2,08.7,0001.8,0015.79,0008.18,0007.36
2022-11-13 14:53:00,,0820.2,4.99,0.00,22.4,21.2,00.0,31.3,24.2,08.7,0002.0,0016.77,0008.31,0007.49
2022-11-13 14:54:00,,0820.2,5.01,0.00,22.4,21.2,00.0,31.3,24.2,08.7,0001.5,0017.41,0008.41,0007.61
2022-11-13 14:55:00,,0820.2,5.00,0.00,22.4,21.2,00.0,31.3,24.2,08.8,0002.2,0017.48,0008.62,0007.80
2022-11-13 14:56:00,,0820.2,5.00,0.00,22.4,21.2,00.0,31.3,24.2,08.9,0002.0,0018.08,0008.86,0008.01
2022-11-13 14:57:00,,0820.2,5.01,0.00,22.4,21.2,00.0,31.3,24.2,09.0,0001.4,0017.88,0009.08,0008.20
2022-11-13 14:58:00,,0820.2,4.99,0.00,22.4,21.2,00.0,31.3,24.2,09.0,0001.6,0017.02,0009.29,0008.37
2022-11-13 14:59:00,,0820.2,5.00,0.00,22.4,21.2,00.0,31.3,24.2,09.0,0002.2,0017.25,0009.50,0008.54
